Regional Weather Roundup
Issued by NWS

Home | Current Version | Previous Version | Text Only | Print | Product List | Glossary On
Versions: 1 2 3 4 5 6 7 8 9 10 11 12 13 14 15 16 17 18 19 20 21 22 23 24 25 26 27 28 29 30 31 32 33 34 35 36 37 38 39 40 41 42 43 44 45 46 47 48 49 50
000
ASUS43 KLMK 160702
RWRKY
KENTUCKY REGIONAL WEATHER ROUNDUP
NATIONAL WEATHER SERVICE LOUISVILLE KY
200 AM EST SAT DEC 16 2017

NOTE "FAIR" INDICATES FEW OR NO CLOUDS BELOW 12,000 FEET
WITH NO SIGNIFICANT WEATHER AND/OR OBSTRUCTIONS TO VISIBILITY.

KYZ001>023-026-027-061>063-070>075-160800-
WESTERN AND SOUTH CENTRAL KENTUCKY

CITY           SKY/WX    TMP DP  RH WIND       PRES   REMARKS
PADUCAH        CLEAR     36  26  67 SW7       30.13S WCI  30
HENDERSON      CLEAR     32  27  81 S8        30.12F WCI  25
OWENSBORO      PTCLDY    32  26  78 S7        30.13F WCI  26
HOPKINSVILLE   CLEAR     33  24  69 S8        30.16S WCI  26
BOWLING GREEN  CLOUDY    33  25  72 S9        30.19S WCI  25
GLASGOW        NOT AVBL
$$

KYZ024-025-028>034-038-045-046-053-160800-
NORTH CENTRAL KENTUCKY

CITY           SKY/WX    TMP DP  RH WIND       PRES   REMARKS
LOUISVILLE/SDF CLOUDY    39  24  55 S9        30.13S WCI  33
LOUISVILLE/LOU   N/A     35  26  69 S7        30.13F WCI  29
FORT KNOX      CLOUDY    36  24  60 S10       30.11F WCI  29
$$

KYZ035>037-039>044-047>052-055>060-089>105-160800-
NORTHEAST KENTUCKY

CITY           SKY/WX    TMP DP  RH WIND       PRES   REMARKS
LEXINGTON      CLOUDY    34  23  64 S14       30.13F WCI  25
COVINGTON      CLOUDY    32  24  72 S9        30.07F WCI  24
FRANKFORT      CLOUDY    34  22  61 S6        30.12F WCI  29
$$

KYZ054-064>069-076>088-106>120-160800-
SOUTHEAST KENTUCKY

CITY           SKY/WX    TMP DP  RH WIND       PRES   REMARKS
JACKSON        CLEAR     30  20  66 SW5       30.15S WCI  25
LONDON         CLEAR     26  20  77 CALM      30.18R
SOMERSET       NOT AVBL
MIDDLESBORO    CLOUDY    30  23  73 CALM      30.20F
MONTICELLO     SUNNY     26  22  84 W7        30.21S WCI  18
$$




USA.gov is the U.S. government's official web portal to all federal, state and local government web resources and services.